Вернуться в каталог

FENGYUN 1C DEB

АктивенSSO
NORAD 31944·DEBRIS·🇨🇳 China

Запущен May 10, 1999 с Taiyuan Satellite Launch Center

Loading…

Ближайшие Пролёты (ближайшие 24 часа)

TLE

СвежийSource: Space-Track

Эпоха: Sep 14, 2026, 06:41 UTC

1 31944U 99025CMV 26257.27881082  .00000521  00000-0  27754-3 0  9990
2 31944  99.2357  57.6444 0149880 312.3513 169.0872 14.12440761667996

Отслеживайте FENGYUN 1C DEB в реальном времени с AllMySat

Download on the App Store